Regional Weather Roundup
Issued by NWS Cleveland, OH

Home | Current Version | Previous Version | Graphics & Text | Print | Product List | Glossary On
Versions: 1 2 3 4 5 6 7 8 9 10 11 12 13 14 15 16 17 18 19 20 21 22 23 24 25 26 27 28 29 30 31 32 33 34 35 36 37 38 39 40 41 42 43 44 45 46 47 48 49 50
000
ASUS41 KCLE 212002
RWRCLE
OHIO REGIONAL WEATHER ROUNDUP
NATIONAL WEATHER SERVICE CLEVELAND, OH
400 PM EDT MON AUG 21 2017

NOTE: "FAIR" INDICATES FEW OR NO CLOUDS BELOW 12,000 FEET WITH NO
SIGNIFICANT WEATHER AND/OR OBSTRUCTIONS TO VISIBILITY.

OHZ001>008-015>018-024>027-034-035-043-044-212100-
   NORTHWEST OHIO

CITY           SKY/WX    TMP DP  RH WIND       PRES   REMARKS
DEFIANCE       CLOUDY    86  71  60 VRB7      30.05F HX  91
FINDLAY        CLOUDY    82  72  71 SW13      30.06F
TOLEDO EXPRESS SUNNY     85  72  65 SW6       30.04F HX  91
TOLEDO EXEC    SUNNY     87  71  58 SW9       30.05F HX  93
LIMA           LGT RAIN  78  72  81 S7        30.08F
$$

OHZ009>014-019>023-028>033-038-089-212100-
   NORTHEAST OHIO

CITY           SKY/WX    TMP DP  RH WIND       PRES   REMARKS
CLE-HOPKINS    PTSUNNY   89  67  47 S6        30.08F HX  92
CLE-LAKEFRONT  SUNNY     84  69  60 NE6       30.06F
CUY CO. ARPT   MOSUNNY   88  64  45 VRB3      30.09F
LORAIN-ELYRIA  PTSUNNY   86  65  49 SW6       30.08F
ASHTABULA      SUNNY     85  70  60 CALM      30.10F
AKRON-CANTON   CLOUDY    89  68  49 SW10      30.11F HX  93
WOOSTER        MOSUNNY   85  72  65 S10       30.11F HX  91
MANSFIELD      CLOUDY    83  70  64 S16       30.11F
YOUNGSTOWN     PTSUNNY   85  67  54 SW5       30.11F
$$

OHZ042-051>053-060>062-070>072-077>081-212100-
  SOUTHWEST OHIO

CITY           SKY/WX    TMP DP  RH WIND       PRES   REMARKS
CINC-COVINGTON PTSUNNY   89  70  53 SW8       30.12F HX  94
CINC-LUNKEN    SUNNY     90  72  55 SW9       30.10F HX  97
HAMILTON       MOSUNNY   90  69  50 SW10G17   30.11F HX  94
DAYTON         CLOUDY    87  67  51 SW13      30.11F HX  90
WRIGHT-PAT AFB DRIZZLE   91  62  37 S17G25    30.09F HX  91
DAYTON GENERAL MOSUNNY   88  65  46 SW9       30.11F HX  90
WILMINGTON     SUNNY     87  72  60 S14       30.12F HX  93
$$

OHZ036-037-039>041-045>050-054>059-063>069-073>076-082>088-212100-
  CENTRAL AND SOUTHEAST OHIO

CITY           SKY/WX    TMP DP  RH WIND       PRES   REMARKS
COLUMBUS       CLOUDY    88  71  57 S10       30.10F HX  94
OSU AIRPORT    PTSUNNY   86  71  60 S13       30.10F HX  91
BOLTON FIELD   SUNNY     84  73  70 SW6       30.12F HX  91
RICKENBACK AFB CLOUDY    86  71  61 SW9       30.10F HX  91
NEWARK         CLOUDY    85  72  65 S9        30.11F HX  91
MARION         CLOUDY    84  69  60 SW13      30.09F
LANCASTER      CLOUDY    86  71  60 SW6       30.12F HX  91
ZANESVILLE     CLOUDY    86  74  67 S8        30.13S HX  94
NEW PHILLY     NOT AVBL
$$




USA.gov is the U.S. government's official web portal to all federal, state and local government web resources and services.